Weather History for Monroe, MI

Change the Weather History Date:

Wednesday, February 29, 2012

  Actual Average Record
Temperature  
Mean Temperature 40 °F -  
Max Temperature 46 °F - 57 °F (1976)
Min Temperature 35 °F - 1 °F (1980)
Degree Days  
Heating Degree Days 24    
Moisture  
Dew Point 37 °F    
Average Humidity 97    
Maximum Humidity 100    
Minimum Humidity 75    
Precipitation  
Precipitation 0.00 in - - ()
Sea Level Pressure  
Sea Level Pressure 29.72 in    
Wind  
Wind Speed 11 mph (East)    
Max Wind Speed 18 mph    
Max Gust Speed 26 mph    
Visibility 4 miles    
Events Fog , Rain , Snow    
Averages and records for this station are not official NWS values.
T = Trace of Precipitation, MM = Missing Value Source: NWS Daily Summary

Daily Weather History Graph

Daily Weather History Graph

Search for Another Location

Airport:

Trip Planner

Search our weather history database for the weather conditions in past years. The results will help you decide how hot, cold, wet, or windy it might be!

Date:

Astronomy

Feb. 29, 2012 Rise Set
Actual Time 7:09 AM EST 6:23 PM EST
Civil Twilight 6:41 AM EST 6:51 PM EST
Nautical Twilight 6:09 AM EST 7:23 PM EST
Astronomical Twilight 5:37 AM EST 7:56 PM EST
Moon 10:52 AM EST (2/29) 1:16 AM EST (2/29)
Length of Visible Light 12h 09m
Length of Day
11h 13m
Waxing Crescent, 47% of the Moon is Illuminated
Feb 29
Waxing Crescent
Feb 29
First Quarter
Mar 8
Full
Mar 14
Last Quarter
Mar 22
New

Hourly Weather History & Observations

Time (EST) Temp. Windchill Dew Point Humidity Pressure Visibility Wind Dir Wind Speed Gust Speed Precip Events Conditions
12:14 AM 35.6 °F 28.6 °F 28.4 °F 75% 30.10 in 10.0 mi East 9.2 mph 19.6 mph N/A   Overcast
12:34 AM 35.6 °F 27.5 °F 30.2 °F 81% 30.08 in 10.0 mi East 11.5 mph - N/A   Overcast
12:54 AM 35.6 °F 28.0 °F 30.2 °F 81% 30.07 in 10.0 mi East 10.4 mph 17.3 mph N/A   Overcast
1:14 AM 35.6 °F 27.1 °F 30.2 °F 81% 30.05 in 10.0 mi East 12.7 mph 19.6 mph N/A   Overcast
1:34 AM 37.4 °F 30.3 °F 30.2 °F 75% 30.04 in 10.0 mi East 10.4 mph - N/A   Overcast
1:54 AM 35.6 °F 27.5 °F 30.2 °F 81% 30.02 in 10.0 mi East 11.5 mph - N/A   Drizzle
2:14 AM 35.6 °F 27.5 °F 30.2 °F 81% 30.02 in 10.0 mi East 11.5 mph - N/A Rain Light Rain
2:34 AM 35.6 °F 26.2 °F 32.0 °F 87% 30.01 in 7.0 mi East 15.0 mph 20.7 mph N/A   Overcast
2:54 AM 35.6 °F 27.5 °F 32.0 °F 87% 30.00 in 10.0 mi East 11.5 mph 19.6 mph N/A   Overcast
3:14 AM 35.6 °F 27.1 °F 32.0 °F 87% 29.97 in 5.0 mi East 12.7 mph - N/A   Overcast
3:35 AM 35.6 °F 26.2 °F 33.8 °F 93% 29.96 in 5.0 mi East 15.0 mph 19.6 mph N/A   Overcast
3:55 AM 35.6 °F 27.1 °F 33.8 °F 93% 29.94 in 4.0 mi East 12.7 mph 20.7 mph N/A Rain Rain
4:15 AM 35.6 °F 26.6 °F 33.8 °F 93% 29.94 in 4.0 mi East 13.8 mph - N/A Snow Light Snow
4:35 AM 35.6 °F 25.9 °F 35.6 °F 100% 29.90 in 5.0 mi East 16.1 mph 23.0 mph N/A Snow Light Snow
4:55 AM 35.6 °F 26.2 °F 35.6 °F 100% 29.90 in 7.0 mi East 15.0 mph 24.2 mph N/A Rain Light Rain
5:15 AM 35.6 °F 25.5 °F 35.6 °F 100% 29.88 in 5.0 mi East 17.3 mph 25.3 mph N/A   Overcast
5:35 AM 35.6 °F 26.2 °F 35.6 °F 100% 29.87 in 4.0 mi East 15.0 mph 23.0 mph N/A Snow Light Snow
5:55 AM 35.6 °F 25.2 °F 35.6 °F 100% 29.85 in 4.0 mi East 18.4 mph 23.0 mph N/A Rain Rain
6:10 AM 35.6 °F 25.2 °F 35.6 °F 100% 29.83 in 4.0 mi East 18.4 mph 26.5 mph N/A   Overcast
6:31 AM 35.6 °F 25.9 °F 35.6 °F 100% 29.84 in 7.0 mi East 16.1 mph 21.9 mph N/A Rain Light Rain
6:51 AM 35.6 °F 25.9 °F 35.6 °F 100% 29.83 in 7.0 mi East 16.1 mph 23.0 mph N/A Rain Light Rain
7:11 AM 35.6 °F 25.9 °F 35.6 °F 100% 29.83 in 3.0 mi East 16.1 mph - N/A Rain Light Rain
7:31 AM 35.6 °F 26.6 °F 35.6 °F 100% 29.80 in 7.0 mi East 13.8 mph 24.2 mph N/A   Overcast
7:51 AM 35.6 °F 25.2 °F 35.6 °F 100% 29.78 in 3.0 mi East 18.4 mph 26.5 mph N/A Rain Light Rain
8:11 AM 35.6 °F 26.6 °F 35.6 °F 100% 29.77 in 3.0 mi East 13.8 mph 23.0 mph N/A Rain Light Rain
8:31 AM 35.6 °F 27.5 °F 35.6 °F 100% 29.76 in 3.0 mi East 11.5 mph 23.0 mph N/A Rain Light Rain
8:51 AM 35.6 °F 26.2 °F 35.6 °F 100% 29.75 in 1.5 mi East 15.0 mph 26.5 mph N/A Snow Snow
9:11 AM 35.6 °F 26.2 °F 35.6 °F 100% 29.74 in 3.0 mi East 15.0 mph 25.3 mph N/A Rain Light Rain
9:31 AM 35.6 °F 25.5 °F 35.6 °F 100% 29.71 in 1.2 mi East 17.3 mph 24.2 mph N/A Rain Light Rain
9:51 AM 35.6 °F 26.2 °F 35.6 °F 100% 29.72 in 1.5 mi East 15.0 mph 24.2 mph N/A Snow Light Snow
10:12 AM 35.6 °F 26.6 °F 35.6 °F 100% 29.70 in 1.5 mi East 13.8 mph 20.7 mph N/A   Light Drizzle
10:52 AM 37.4 °F 29.8 °F 37.4 °F 100% 29.69 in 1.2 mi East 11.5 mph - N/A   Overcast
11:12 AM 37.4 °F 31.4 °F 37.4 °F 100% 29.68 in 1.0 mi East 8.1 mph 11.5 mph N/A   Overcast
11:32 AM 37.4 °F 29.8 °F 37.4 °F 100% 29.66 in 1.0 mi ESE 11.5 mph 18.4 mph N/A   Overcast
11:52 AM 37.4 °F 30.8 °F 37.4 °F 100% 29.66 in 1.0 mi ESE 9.2 mph 16.1 mph N/A   Overcast
12:32 PM 39.2 °F 32.5 °F 39.2 °F 100% 29.65 in 0.5 mi ESE 10.4 mph 16.1 mph N/A Fog Fog
12:53 PM 39.2 °F 33.0 °F 39.2 °F 100% 29.64 in 0.2 mi East 9.2 mph - N/A Fog Fog
1:33 PM 39.2 °F 34.2 °F 39.2 °F 100% 29.61 in 0.2 mi East 6.9 mph - N/A Fog Fog
1:53 PM 39.2 °F 33.6 °F 39.2 °F 100% 29.60 in 0.2 mi ESE 8.1 mph - N/A Fog Fog
2:13 PM 41.0 °F 37.1 °F 41.0 °F 100% 29.59 in 0.2 mi ESE 5.8 mph - N/A Fog Fog
2:33 PM 41.0 °F 37.1 °F 41.0 °F 100% 29.58 in 0.8 mi East 5.8 mph - N/A   Overcast
2:53 PM 41.0 °F 37.1 °F 41.0 °F 100% 29.56 in 0.8 mi East 5.8 mph - N/A   Overcast
3:13 PM 42.8 °F 40.1 °F 42.8 °F 100% 29.56 in 0.8 mi ESE 4.6 mph - N/A   Overcast
3:33 PM 42.8 °F 39.3 °F 42.8 °F 100% 29.55 in 0.5 mi ESE 5.8 mph - N/A Fog Fog
3:54 PM 41.0 °F 38.0 °F 41.0 °F 100% 29.54 in 0.2 mi East 4.6 mph - N/A Fog Fog
4:14 PM 42.8 °F 40.1 °F 42.8 °F 100% 29.52 in 0.2 mi East 4.6 mph - N/A Fog Fog
4:34 PM 42.8 °F - 42.8 °F 100% 29.52 in 0.2 mi Calm Calm - N/A Fog Fog
4:54 PM 42.8 °F 40.1 °F 42.8 °F 100% 29.51 in 0.2 mi ENE 4.6 mph - N/A Fog Fog
5:14 PM 42.8 °F 41.1 °F 42.8 °F 100% 29.50 in 0.2 mi East 3.5 mph - N/A Fog Fog
5:34 PM 42.8 °F 40.1 °F 42.8 °F 100% 29.48 in 0.2 mi East 4.6 mph - N/A Fog Fog
5:54 PM 42.8 °F 41.1 °F 42.8 °F 100% 29.48 in 0.2 mi ESE 3.5 mph - N/A Fog Fog
6:14 PM 42.8 °F 40.1 °F 42.8 °F 100% 29.48 in 0.2 mi SE 4.6 mph - N/A Fog Fog
6:34 PM 41.0 °F 37.1 °F 41.0 °F 100% 29.48 in 0.2 mi East 5.8 mph - N/A Fog Fog
6:55 PM 39.2 °F 35.9 °F 39.2 °F 100% 29.48 in 0.2 mi East 4.6 mph - N/A Fog Fog
7:15 PM 39.2 °F 34.2 °F 39.2 °F 100% 29.48 in 0.2 mi East 6.9 mph - N/A   Overcast
7:35 PM 39.2 °F - 39.2 °F 100% 29.49 in 0.2 mi Calm Calm - N/A   Overcast
8:15 PM 39.2 °F 35.0 °F 39.2 °F 100% 29.48 in 1.2 mi East 5.8 mph - N/A   Light Drizzle
8:35 PM 39.2 °F - 39.2 °F 100% 29.47 in 3.0 mi Calm Calm - N/A   Mostly Cloudy
8:55 PM 39.2 °F - 39.2 °F 100% 29.48 in 2.5 mi Calm Calm - N/A   Overcast
9:10 PM 41.0 °F 33.5 °F 41.0 °F 100% 29.48 in 5.0 mi West 13.8 mph 17.3 mph N/A   Overcast
9:30 PM 46.4 °F 41.5 °F 46.4 °F 100% 29.46 in 10.0 mi WNW 10.4 mph - N/A   Scattered Clouds
9:51 PM 44.6 °F 41.4 °F 44.6 °F 100% 29.47 in 10.0 mi SSW 5.8 mph - N/A   Scattered Clouds
10:11 PM 46.4 °F 40.1 °F 44.6 °F 93% 29.51 in 10.0 mi WNW 15.0 mph 19.6 mph N/A   Overcast
10:31 PM 48.2 °F - 39.2 °F 71% 29.52 in 10.0 mi NW 10.4 mph 21.9 mph N/A   Overcast
10:51 PM 46.4 °F 42.9 °F 39.2 °F 76% 29.52 in 10.0 mi West 6.9 mph - N/A   Light Drizzle
11:11 PM 44.6 °F 40.7 °F 39.2 °F 81% 29.52 in 10.0 mi West 6.9 mph - N/A Rain Light Rain
11:31 PM 44.6 °F 37.4 °F 39.2 °F 81% 29.54 in 10.0 mi West 16.1 mph 20.7 mph N/A   Drizzle
11:51 PM 42.8 °F 36.6 °F 41.0 °F 93% 29.54 in 7.0 mi West 11.5 mph 23.0 mph N/A Rain Rain